Location: Aciu?a
(46.2833°N, 22.4500°E)
Time: 03:45:11
(UTC+00:00)

H-2A R/B - Pass Details

Date: 25 October 2021
Orbit: 528 x 651 km, 98.3° (Epoch: 30 November)

Event Time Altitude Azimuth Distance (km) Brightness Sun altitude
Rises 16:49:16 0° 156° (SSE) 2,880 5.8 -14.9°
Reaches altitude 10° 16:51:29 10° 153° (SSE) 1,960 4.9 -15.3°
Maximum altitude 16:55:41 63° 73° (ENE) 669 2.4 -16.0°
Drops below altitude 10° 16:59:46 10° 353° (N) 1,901 5.1 -16.7°
Sets 17:01:53 0° 350° (N) 2,784 6.0 -17.1°
